| time (UTC) | temp C | wind direction | speed KPH | gust KPH | rain 1hr cm | rain 24hr cm | rain mn cm | humidity % | barometer mb |
| 20260831112256 | 26 | 240 | 29.0 | 0.0 | 0.00 | 0.00 | 0.00 | 54 | |
| 20260831110238 | 26 | 230 | 27.4 | 0.0 | 0.00 | 0.00 | 0.00 | 50 | 1014.0 |
| 20260831105204 | 26 | 230 | 22.5 | 0.0 | 0.00 | 0.00 | 0.00 | 54 | 1014.0 |
| 20260831103230 | 23 | 240 | 14.5 | 0.0 | 0.00 | 0.00 | 0.00 | 57 | 1014.0 |
| 20260831102458 | 23 | 250 | 11.3 | 0.0 | 0.00 | 0.00 | 0.00 | 57 | |
| 20260831100235 | 23 | 250 | 11.3 | 0.0 | 0.00 | 0.00 | 0.00 | 57 | 1014.0 |
| 20260831095805 | 25 | 250 | 11.3 | 0.0 | 0.00 | 0.00 | 0.00 | 53 | 1014.0 |
| 20260831093230 | 22 | 260 | 8.0 | 0.0 | 0.00 | 0.00 | 0.00 | 64 | 1014.0 |
| 20260831092244 | 22 | 270 | 8.0 | 0.0 | 0.00 | 0.00 | 0.00 | 69 | |
| 20260831090234 | 22 | 270 | 8.0 | 0.0 | 0.00 | 0.00 | 0.00 | 64 | 1014.0 |
| 20260831083231 | 22 | 270 | 4.8 | 0.0 | 0.00 | 0.00 | 0.00 | 64 | 1014.0 |
| 20260831082416 | 22 | 0 | 3.2 | 0.0 | 0.00 | 0.00 | 0.00 | 60 | |
| 20260831080246 | 22 | 0 | 0.0 | 0.0 | 0.00 | 0.00 | 0.00 | 64 | 1014.0 |
| 20260831073231 | 21 | 0 | 3.2 | 0.0 | 0.00 | 0.00 | 0.00 | 68 | 1014.0 |
| 20260831072904 | 21 | 0 | 3.2 | 0.0 | 0.00 | 0.00 | 0.00 | 68 | 1014.0 |
| 20260831072400 | 20 | 200 | 3.2 | 0.0 | 0.00 | 0.00 | 0.00 | 68 | |
| 20260831070234 | 18 | 210 | 4.8 | 0.0 | 0.00 | 0.00 | 0.00 | 72 | 1015.0 |
| 20260831063238 | 17 | 250 | 8.0 | 0.0 | 0.00 | 0.00 | 0.00 | 77 | 1015.0 |
| 20260831062259 | 17 | 210 | 8.0 | 0.0 | 0.00 | 0.00 | 0.00 | 82 | |
| 20260831060240 | 17 | 220 | 8.0 | 0.0 | 0.00 | 0.00 | 0.00 | 82 | 1015.0 |
| 20260831053224 | 17 | 210 | 8.0 | 0.0 | 0.00 | 0.00 | 0.00 | 77 | 1015.0 |
| 20260831052412 | 17 | 0 | 3.2 | 0.0 | 0.00 | 0.00 | 0.00 | 82 | |
| 20260831050239 | 17 | 0 | 1.6 | 0.0 | 0.00 | 0.00 | 0.00 | 82 | 1015.0 |
| 20260831043230 | 16 | 0 | 1.6 | 0.0 | 0.00 | 0.00 | 0.00 | 82 | 1015.0 |
| 20260831042457 | 17 | 190 | 3.2 | 0.0 | 0.00 | 0.00 | 0.00 | 77 | |
| 20260831040235 | 16 | 190 | 4.8 | 0.0 | 0.00 | 0.00 | 0.00 | 82 | 1015.0 |
| 20260831033231 | 15 | 260 | 4.8 | 0.0 | 0.00 | 0.00 | 0.00 | 87 | 1015.0 |
| 20260831032156 | 15 | 260 | 8.0 | 0.0 | 0.00 | 0.00 | 0.00 | 82 | |
| 20260831030234 | 15 | 0 | 3.2 | 0.0 | 0.00 | 0.00 | 0.00 | 82 | 1015.0 |
| 20260831023223 | 15 | 220 | 8.0 | 0.0 | 0.00 | 0.00 | 0.00 | 87 | 1015.0 |
| 20260831022255 | 15 | 230 | 8.0 | 0.0 | 0.00 | 0.00 | 0.00 | 82 | |
| 20260831020230 | 16 | 230 | 8.0 | 0.0 | 0.00 | 0.00 | 0.00 | 82 | 1015.0 |
| 20260831013224 | 16 | 230 | 9.7 | 0.0 | 0.00 | 0.00 | 0.00 | 82 | 1015.0 |
| 20260831012256 | 16 | 230 | 8.0 | 0.0 | 0.00 | 0.00 | 0.00 | 82 | |
| 20260831010231 | 16 | 230 | 9.7 | 0.0 | 0.00 | 0.00 | 0.00 | 82 | 1015.0 |
| 20260831003224 | 17 | 230 | 4.8 | 0.0 | 0.00 | 0.00 | 0.00 | 77 | 1016.0 |
| 20260831002155 | 16 | 230 | 8.0 | 0.0 | 0.00 | 0.00 | 0.00 | 82 | |
| 20260831000233 | 17 | 240 | 4.8 | 0.0 | 0.00 | 0.00 | 0.00 | 82 | 1016.0 |
| 20260830233224 | 17 | 220 | 8.0 | 0.0 | 0.00 | 0.00 | 0.00 | 72 | 1016.0 |
| 20260830232356 | 17 | 210 | 8.0 | 0.0 | 0.00 | 0.00 | 0.00 | 72 | |
| 20260830230233 | 17 | 210 | 9.7 | 0.0 | 0.00 | 0.00 | 0.00 | 72 | 1016.0 |
| 20260830223223 | 20 | 160 | 4.8 | 0.0 | 0.00 | 0.00 | 0.00 | 68 | 1016.0 |
| 20260830222358 | 20 | 150 | 3.2 | 0.0 | 0.00 | 0.00 | 0.00 | 68 | |
| 20260830220235 | 20 | 140 | 3.2 | 0.0 | 0.00 | 0.00 | 0.00 | 68 | 1015.0 |
| 20260830213224 | 18 | 250 | 4.8 | 0.0 | 0.00 | 0.00 | 0.00 | 72 | 1016.0 |
| 20260830212157 | 21 | 180 | 8.0 | 0.0 | 0.00 | 0.00 | 0.00 | 64 | |
| 20260830210232 | 21 | 180 | 4.8 | 0.0 | 0.00 | 0.00 | 0.00 | 64 | 1015.0 |
| 20260830203224 | 18 | 0 | 3.2 | 0.0 | 0.00 | 0.00 | 0.00 | 82 | 1015.0 |
| 20260830202355 | 20 | 0 | 0.0 | 0.0 | 0.00 | 0.00 | 0.00 | 64 | |
| 20260830200240 | 20 | 0 | 3.2 | 0.0 | 0.00 | 0.00 | 0.00 | 64 | 1015.0 |
| 20260830193224 | 20 | 250 | 4.8 | 0.0 | 0.00 | 0.00 | 0.00 | 64 | 1015.0 |
| 20260830192256 | 22 | 0 | 3.2 | 0.0 | 0.00 | 0.00 | 0.00 | 56 | |
| 20260830190240 | 22 | 170 | 4.8 | 0.0 | 0.00 | 0.00 | 0.00 | 53 | 1015.0 |
| 20260830183230 | 22 | 150 | 9.7 | 0.0 | 0.00 | 0.00 | 0.00 | 49 | 1015.0 |
| 20260830182158 | 22 | 160 | 8.0 | 0.0 | 0.00 | 0.00 | 0.00 | 53 | |
| 20260830180233 | 23 | 160 | 8.0 | 0.0 | 0.00 | 0.00 | 0.00 | 50 | 1015.0 |
| 20260830173231 | 25 | 170 | 8.0 | 0.0 | 0.00 | 0.00 | 0.00 | 44 | 1014.0 |
| 20260830172355 | 26 | 170 | 8.0 | 0.0 | 0.00 | 0.00 | 0.00 | 41 | |
| 20260830170233 | 26 | 170 | 9.7 | 0.0 | 0.00 | 0.00 | 0.00 | 41 | 1014.0 |
| 20260830163231 | 26 | 210 | 14.5 | 0.0 | 0.00 | 0.00 | 0.00 | 41 | 1014.0 |
| 20260830162258 | 27 | 220 | 22.5 | 0.0 | 0.00 | 0.00 | 0.00 | 39 | |
| 20260830160232 | 27 | 230 | 19.3 | 0.0 | 0.00 | 0.00 | 0.00 | 39 | 1015.0 |
| 20260830153231 | 27 | 220 | 20.9 | 0.0 | 0.00 | 0.00 | 0.00 | 37 | 1015.0 |
| 20260830152156 | 27 | 220 | 19.3 | 0.0 | 0.00 | 0.00 | 0.00 | 37 | |
| 20260830150239 | 27 | 220 | 20.9 | 0.0 | 0.00 | 0.00 | 0.00 | 37 | 1015.0 |
| 20260830143231 | 27 | 220 | 24.1 | 0.0 | 0.00 | 0.00 | 0.00 | 37 | 1015.0 |
| 20260830142311 | 27 | 210 | 25.7 | 0.0 | 0.00 | 0.00 | 0.00 | 37 | |
| 20260830140232 | 27 | 220 | 24.1 | 0.0 | 0.00 | 0.00 | 0.00 | 34 | 1015.0 |
| 20260830133231 | 27 | 220 | 27.4 | 0.0 | 0.00 | 0.00 | 0.00 | 36 | 1015.0 |
| 20260830132256 | 27 | 220 | 25.7 | 0.0 | 0.00 | 0.00 | 0.00 | 39 | |
| 20260830130604 | 27 | 220 | 25.7 | 0.0 | 0.00 | 0.00 | 0.00 | 37 | 1015.0 |
| 20260830130233 | 26 | 230 | 27.4 | 0.0 | 0.00 | 0.00 | 0.00 | 41 | 1015.0 |
| 20260830123231 | 27 | 230 | 24.1 | 0.0 | 0.00 | 0.00 | 0.00 | 37 | 1016.0 |
| 20260830122228 | 27 | 230 | 25.7 | 0.0 | 0.00 | 0.00 | 0.00 | 39 | |
| 20260830120234 | 27 | 220 | 25.7 | 0.0 | 0.00 | 0.00 | 0.00 | 36 | 1016.0 |
| 20260830113231 | 27 | 240 | 22.5 | 0.0 | 0.00 | 0.00 | 0.00 | 39 | 1016.0 |